Regional Weather Roundup
Issued by NWS Charleston, SC

Current Version | Previous Version | Graphics & Text | Print | Product List | Glossary On
Versions: 1 2 3 4 5 6 7 8 9 10 11 12 13 14 15 16 17 18 19 20 21 22 23 24 25 26 27 28 29 30 31 32 33 34 35 36 37 38 39 40 41 42 43 44 45 46 47 48 49 50
000 ASUS42 KCHS 272227 RWRCHS REGIONAL WEATHER ROUNDUP NATIONAL WEATHER SERVICE CHARLESTON SC 600 PM EDT MON JUL 27 2015 NOTE: "FAIR" INDICATES FEW OR NO CLOUDS BELOW 12,000 FEET WITH NO SIGNIFICANT WEATHER AND/OR OBSTRUCTIONS TO VISIBILITY. NOT ALL STATIONS ARE QUALITY CONTROLLED BY THE NATIONAL WEATHER SERVICE. USE DATA WITH CAUTION...ESPECIALLY DEWPOINT OBSERVATIONS. SCZ027-030-031-034>040-042>050-272300- ...SOUTHEAST SOUTH CAROLINA... CITY SKY/WX TMP DP RH WIND PRES REMARKS N CHARLESTON FAIR 88 74 63 E14 29.93S HX 96 WATERFRONT PRK N/A 88 80 77 E14 29.91S HX 104 MOUNT PLEASANT LGT RAIN 86 79 79 E7 29.94R HX 99 JOHNS ISLAND FAIR 86 79 79 E12 29.93S HX 99 PINOPOLIS NOT AVBL MONCKS CORNER FAIR 90 73 58 SE5 29.93R HX 98 SUMMERVILLE FAIR 88 79 74 SE6 29.93S HX 102 BEAUFORT MCAS FAIR 88 74 63 E14 29.92S HX 96 BEAUFORT ARPT FAIR 86 77 74 E8 29.92S HX 97 HILTON HEAD IS MOSUNNY 86 79 79 NE7 29.94S HX 99 WALTERBORO FAIR 91 73 55 SE9 29.93R HX 100 ALLENDALE FAIR 93 64 38 SE5 29.90S HX 95 ...SOUTHERN MIDLANDS AND PEE DEE... CITY SKY/WX TMP DP RH WIND PRES REMARKS GEORGETOWN NOT AVBL KINGSTREE NOT AVBL ORANGEBURG FAIR 95 63 34 VRB7 29.91F HX 96 BARNWELL FAIR 97 63 32 SE7 29.91F HX 98 AIKEN FAIR 93 59 31 E3 29.96R HX 92 MANNING MOCLDY 91 64 40 SE5 29.91R HX 93 COLUMBIA FAIR 96 61 31 E9 29.91S HX 96 SUMTER FAIR 96 67 38 E5 29.89F HX 99 FLORENCE FAIR 92 72 51 SE15 29.92S HX 99 MYRTLE BEACH MOSUNNY 88 73 62 E12 29.97F HX 96 N MYRTLE BEACH FAIR 85 75 72 E13G22 29.96S HX 93 $$ GAZ063-065-086>088-099>101-113>116-118-119-134>141-150-272300- ...SOUTHEAST GEORGIA... CITY SKY/WX TMP DP RH WIND PRES REMARKS SAVANNAH ARPT FAIR 88 74 63 SE14 29.92S HX 96 HUNTER AAF FAIR 87 78 74 E10 29.90S HX 100 FORT STEWART FAIR 89 75 64 SE13 29.90S HX 99 STATESBORO FAIR 94 70 45 E6 29.91S HX 100 SYLVANIA FAIR 95 68 41 E5 29.92S HX 100 CLAXTON FAIR 93 64 38 E7 29.91S HX 95 ...CSRA...CENTRAL AND FAR SOUTHEAST GEORGIA... CITY SKY/WX TMP DP RH WIND PRES REMARKS THOMSON FAIR 98 66 34 E3 29.95S HX 102 AUGUSTA-BUSH FAIR 98 63 31 E5 29.88F HX 100 AUGUSTA-DANIEL FAIR 98 63 31 NE6 29.91F HX 100 SWAINSBORO FAIR 97 66 36 E7 29.92S HX 100 VIDALIA FAIR 95 63 34 E8 29.92R HX 96 EASTMAN FAIR 96 65 36 E6 29.94S HX 98 HAZLEHURST FAIR 94 63 35 E6 29.91S HX 95 ALMA FAIR 89 75 63 SE7 29.91F HX 99 WAYCROSS FAIR 87 82 84 SE6 29.92S HX 105 JESUP FAIR 91 79 66 SE6 29.92S HX 107 BAXLEY FAIR 91 77 62 S8 29.91S HX 105 BRUNSWICK FAIR 86 75 70 E9 29.93S HX 95 SAINT SIMONS FAIR 84 77 79 E9 29.92S HX 94 $$ SCZ027-028-034-036>038-045-046-048>050-GAZ119-141-272300- ...LAKE AND SUPPLEMENTAL COASTAL OBSERVATIONS... STATION/POSITION TIME TEMP WIND PRES WAVE SWELL AIR SEA DIR/SP/G HT/PER HT/PER/DIR (UTC) (F) (DEG/KT/KT) (MB) (FT/S) (FT/S/D) UPR LAKE MARION NOT AVBL WINYAH BAY 2145 83 80/ 11 1013.0F LAKE MURRAY 2100 95 200/ 3/ 5 1012.2F ACE BASIN NERRS 2100 88 130/ 4 1014.0S FORT PULASKI 2200 83 85 80/ 11/ 13 1013.9S SAPELO ISLAND 2200 85 80/ 7 1013.0S $$ ANZ835-935-AMZ111-154-330-350-352-354-370-450-454-472-272300- ...C-MAN AND BUOY OBSERVATIONS... STATION/POSITION TIME TEMP WIND PRES WAVE SWELL AIR SEA DIR/SP/G HT/PER HT/PER/DIR (UTC) (F) (DEG/KT/KT) (MB) (FT/S) (FT/S/D) BUOY 41004 2150 84 85 80/ 10/ 12 1012.9R 2/ 7 2/ 7 BUOY 41008 2150 82 82 90/ 8/ 10 1013.3R 2/11 2/100/11 FOLLY BEACH CMAN 2200 84 70/ 13/ 14 1014.0F CAPERS NEARSHORE 2108 82 80/ 10/ 14 1013.7F FRIPP NEARSHORE 2100 84 90/ 12/ 14 1013.1F STATION/POSITION TIME TEMP WIND PRES WAVE SWELL AIR SEA DIR/SP/G HT/PER HT/PER/DIR (UTC) (F) (DEG/KT/KT) (MB) (FT/S) (FT/S/D) 5E ST. MARYS GA 2121 82 N/A 2/11 2/100/11 FRYING PAN BUOY 2150 85 84 100/ 16/ 17 1014.4F 3/ 6 2/150/11 BUOY 41025 NOT AVBL CAPE LOOKOUT NC 2200 81 130/ 9/ 10 1015.1F BUOY 41002 2150 78 82 260/ 6/ 8 1016.0R 4/ 6 5/200/ 6 BUOY 41010 2120 79 84 200/ 10/ 12 1015.5R ST AUGUSTINE FL 2200 81 83 140/ 9/ 10 1013.7F $$

USA.gov is the U.S. government's official web portal to all federal, state and local government web resources and services.